Theta_e
292 293 294 295 293 293 293 293 294 294 296 297 294 291 294 298 291 288 297 300 295 295 298 298 298 300 301 303 305 308 309 309 310 310 309 309 310 309 308 308 309 310 309 310 311 312 314 317 319 320 320 321 321 321 322 322 323 324 325 325 325 325 325 325 326 326 327 327 327 326 326 326 325 325 326 326 327 327 328 328 327 326 326 326 327 326 327
290 291 292 294 293 292 292 292 293 294 295 295 296 295 297 298 297 298 298 296 293 295 297 298 298 301 302 303 306 307 307 306 306 306 307 307 307 307 306 306 307 308 308 308 308 309 310 311 311 312 315 318 320 320 321 322 322 323 324 323 323 323 322 323 324 325 326 326 325 326 325 324 325 325 326 328 329 329 328 328 328 327 326 327 326 326 325
289 291 292 293 292 292 291 292 293 294 294 294 295 295 295 297 297 297 296 293 290 296 300 298 299 302 302 302 303 305 306 305 304 304 304 305 305 306 306 307 307 307 307 307 307 308 309 309 309 310 311 313 315 317 319 320 321 322 323 322 322 321 321 322 323 324 324 324 325 325 324 325 325 324 324 326 328 327 327 326 327 327 326 325 325 326 325
287 290 290 290 292 291 290 290 292 293 293 290 291 289 291 294 293 295 294 291 289 296 299 298 298 297 297 296 298 300 302 303 303 303 303 304 304 304 305 305 306 306 306 306 306 306 307 308 308 309 309 309 310 310 311 312 316 319 322 322 322 322 322 323 322 322 322 322 322 323 324 324 324 324 324 324 325 326 326 326 327 327 326 325 325 326 326
288 291 290 291 291 290 285 287 292 291 291 290 289 290 291 291 293 293 289 290 295 298 299 295 294 293 292 292 294 294 294 296 297 298 300 302 303 303 303 303 303 304 304 305 306 306 306 306 306 307 308 308 309 309 310 311 311 312 312 313 315 317 320 321 322 324 323 323 323 324 324 324 324 324 324 323 324 325 324 322 323 321 321 323 322 323 324
288 289 291 291 287 280 283 289 289 293 291 289 288 287 289 291 293 290 293 293 295 297 298 295 293 291 290 291 292 295 295 294 292 295 297 297 299 300 300 301 301 301 302 303 304 305 305 306 306 307 308 308 308 310 310 310 311 310 311 311 312 312 313 315 316 317 318 319 320 322 323 323 323 323 324 324 325 325 322 320 322 321 321 319 320 321 321
287 289 289 285 279 283 289 293 294 294 294 293 289 288 290 291 292 292 292 292 293 293 293 293 292 292 292 292 291 292 295 295 295 294 293 294 296 298 299 299 301 301 301 302 303 303 303 303 305 306 305 307 308 308 309 309 309 310 310 310 311 311 311 312 312 312 312 312 314 316 320 322 323 323 323 324 323 323 322 321 320 320 318 317 318 319 320
290 287 286 278 281 285 289 291 294 296 295 294 293 289 291 292 293 293 292 291 291 291 290 291 292 291 291 291 292 292 293 294 294 291 290 291 294 294 296 297 299 300 301 301 302 303 304 303 303 303 303 305 306 306 307 307 308 308 309 309 310 310 310 310 311 311 311 311 312 312 314 316 318 319 321 321 321 321 320 320 321 320 320 320 319 319 320
284 286 286 284 287 287 286 286 288 291 289 291 291 285 287 292 294 294 292 292 292 292 292 293 293 293 293 291 291 295 293 293 293 295 296 296 293 290 294 296 296 298 300 300 301 303 303 303 302 303 303 304 304 304 304 305 305 306 307 307 307 309 310 310 311 311 310 310 310 312 312 312 312 314 317 318 319 319 318 318 319 318 318 319 320 319 319
288 287 285 283 282 281 284 289 291 292 292 292 293 291 285 292 293 295 293 292 292 293 293 293 294 295 293 289 289 293 295 296 297 297 297 297 299 298 298 298 299 300 300 301 301 302 301 302 302 303 303 303 304 304 303 303 304 305 305 305 306 306 307 309 310 311 311 310 310 310 311 310 310 313 316 318 318 317 316 316 315 316 316 316 316 316 316
286 285 283 282 280 281 287 290 291 293 292 293 293 290 284 289 292 294 294 292 293 293 293 293 295 294 291 289 291 294 295 296 296 296 297 297 298 298 298 298 298 299 300 300 300 301 301 301 302 303 302 303 302 302 303 303 303 303 304 304 304 305 306 307 308 309 311 311 311 311 311 311 313 313 315 316 316 317 315 315 315 314 312 312 312 313 314
286 285 283 282 284 282 287 290 291 291 295 292 291 281 282 288 291 292 293 292 292 293 294 295 294 292 291 289 291 294 295 296 296 296 295 296 296 296 298 298 298 299 299 299 300 300 300 300 301 302 301 301 301 301 302 302 302 303 304 304 304 305 305 306 307 308 309 310 310 311 311 312 313 314 314 314 315 313 313 312 310 309 309 310 310 309 313
284 283 284 285 284 286 288 289 291 291 292 291 283 280 285 291 292 292 293 293 293 294 293 294 290 291 292 293 295 296 296 295 295 296 297 296 296 296 296 296 296 297 297 298 297 298 299 299 300 301 301 301 300 301 301 301 301 303 304 305 305 305 305 305 305 306 307 308 309 310 310 311 313 312 313 313 313 313 311 311 310 309 309 310 310 311 312
284 285 282 283 285 287 291 292 292 293 290 282 283 287 293 293 292 294 294 293 294 294 293 293 292 292 294 295 296 295 295 295 295 295 295 296 296 297 296 295 295 296 296 297 297 298 298 298 299 299 299 299 299 300 300 300 302 304 304 304 304 304 304 304 305 306 306 308 309 310 310 310 311 312 312 312 313 313 311 311 311 311 311 311 310 310 312
284 285 282 280 278 285 291 292 291 292 286 285 289 292 293 294 293 294 294 294 294 295 293 294 294 294 294 294 294 295 295 294 294 294 295 295 294 294 295 295 295 294 295 295 295 296 297 297 298 298 298 298 299 300 300 301 302 303 304 303 303 303 303 303 304 305 306 307 307 309 310 310 309 309 311 312 311 311 311 312 313 314 313 312 311 311 311
282 282 280 280 285 288 293 291 286 289 291 293 294 293 291 294 295 294 294 294 295 295 295 294 294 294 294 294 294 294 294 294 294 294 294 294 294 294 294 294 294 293 294 294 295 296 296 297 297 297 297 296 297 297 298 301 302 302 302 302 302 302 303 303 303 303 304 305 306 307 308 309 309 309 309 310 311 311 310 309 309 308 307 309 309 308 309
284 283 284 286 290 292 294 294 292 294 295 296 296 295 294 293 294 296 294 293 294 295 294 294 293 292 292 292 292 292 292 292 292 292 292 292 292 293 293 293 294 293 293 294 294 295 296 296 297 297 297 296 296 296 298 300 300 300 301 301 301 301 301 302 302 303 304 304 305 306 306 306 307 306 308 309 308 311 311 309 308 308 307 307 307 306 307
289 290 290 291 291 292 293 294 295 294 294 296 296 295 293 294 294 295 293 293 293 293 293 292 292 291 291 290 291 291 291 291 291 292 292 292 293 293 293 293 293 293 294 294 294 294 295 296 296 296 296 296 295 296 298 298 298 298 299 299 299 300 300 301 301 302 302 302 304 305 305 305 306 306 307 306 307 309 309 309 308 308 307 307 306 307 308
287 281 290 289 289 291 292 291 293 294 294 293 293 292 292 292 292 292 292 292 291 292 292 291 290 290 289 289 289 290 290 290 290 290 291 292 292 293 292 293 293 293 293 293 293 294 294 295 296 296 296 296 296 297 297 297 297 297 297 297 297 298 299 300 301 301 301 301 301 302 304 305 305 305 305 306 306 306 308 309 309 308 309 307 306 306 306
285 285 289 291 292 292 293 292 290 290 290 291 292 291 291 291 291 291 291 291 290 291 290 289 289 289 289 288 288 288 288 289 289 290 291 292 292 293 293 294 293 293 293 293 293 293 293 294 295 296 296 296 297 297 297 298 298 298 297 296 296 296 297 298 299 300 301 293 297 300 301 302 302 303 304 305 305 305 306 307 307 307 307 306 307 306 306
288 290 291 291 292 292 292 293 294 293 293 292 292 293 293 293 292 292 292 292 292 291 290 290 290 290 290 290 290 289 289 290 290 291 291 292 293 293 293 293 292 292 292 291 292 292 293 294 295 296 296 297 297 297 297 297 297 297 296 295 296 297 297 297 297 298 298 300 300 300 301 301 302 302 304 305 305 306 308 310 308 309 309 307 307 308 308
284 284 287 290 284 284 289 291 293 294 294 294 293 293 293 293 292 292 292 292 292 292 292 291 291 290 290 291 291 290 290 290 291 291 292 293 293 293 293 293 293 293 293 293 293 293 294 295 295 295 296 297 297 297 297 297 297 296 295 295 295 295 297 297 297 297 297 298 299 299 300 300 301 302 292 289 300 306 307 297 290 289 294 307 309 310 308
283 289 290 292 291 291 292 293 294 294 295 294 293 292 292 293 293 293 292 291 291 291 291 292 291 291 290 290 291 290 290 290 291 291 291 292 292 292 293 293 293 294 294 294 294 294 294 295 295 295 296 297 297 297 297 297 297 296 295 294 294 294 294 295 295 296 297 297 298 299 300 300 301 300 303 299 285 286 289 290 289 290 292 290 289 289 300
290 292 292 293 292 290 292 294 294 294 295 294 293 293 293 293 293 292 292 291 291 291 291 292 292 291 291 291 291 290 290 290 291 291 292 292 293 293 293 293 293 293 293 293 293 293 294 295 295 295 295 296 296 296 296 296 296 295 294 293 292 293 294 294 294 293 295 296 296 297 297 299 300 300 300 300 302 288 286 288 288 288 289 291 291 291 289
289 293 294 293 292 293 295 295 295 295 295 294 293 292 292 292 292 292 291 291 291 290 290 290 291 292 291 290 290 289 288 289 290 290 289 291 291 291 292 293 293 292 293 293 294 295 295 295 294 294 294 295 295 295 295 295 295 294 293 292 292 292 292 292 293 293 293 294 295 296 297 297 298 299 299 299 299 301 295 287 288 290 289 289 288 289 290
293 294 294 294 293 293 294 293 293 294 294 294 293 292 292 291 292 291 291 291 291 291 291 291 290 291 291 290 290 290 289 289 289 288 291 291 292 292 292 292 293 293 293 294 295 295 296 294 293 292 293 293 294 294 294 294 293 293 292 292 292 292 292 292 291 292 293 294 294 295 296 297 298 298 298 299 299 301 301 299 298 292 288 287 288 289 288
293 294 293 291 290 291 292 291 289 293 293 293 293 292 292 293 290 291 291 291 291 291 291 291 291 291 291 291 290 290 289 289 289 290 291 291 291 292 293 294 294 293 293 294 295 294 293 293 293 292 292 292 293 293 293 293 293 292 292 292 292 290 287 288 291 291 291 292 293 294 295 297 297 298 298 298 299 300 302 302 300 300 301 298 290 289 296
293 294 294 289 288 289 291 293 293 293 293 292 292 291 292 292 291 290 290 290 291 291 291 291 291 290 290 291 290 290 290 290 289 289 290 291 293 293 294 294 294 294 294 294 294 294 294 293 292 291 291 292 293 293 293 293 293 292 292 292 292 292 292 291 291 291 291 292 292 292 293 295 297 297 297 297 297 299 300 300 301 302 302 302 298 289 289
293 293 293 293 293 293 294 294 293 292 292 293 293 292 292 290 289 289 289 290 290 290 290 291 291 291 291 290 290 289 289 289 289 289 290 292 292 293 293 293 293 294 294 294 295 295 294 293 292 291 292 293 294 294 294 293 293 293 293 294 293 293 293 293 293 292 292 291 291 291 290 292 294 296 297 297 297 299 301 300 300 300 300 300 299 296 292
293 293 293 293 293 293 292 291 290 291 291 291 291 291 291 290 288 289 289 290 290 289 290 291 291 291 291 290 290 289 287 287 286 289 290 290 292 292 291 292 292 294 295 295 294 295 294 294 294 293 293 294 294 294 294 294 294 293 293 294 294 294 294 294 293 293 292 291 291 288 289 291 293 295 296 297 297 296 297 296 297 296 299 299 295 299 294
293 293 293 293 293 292 291 290 291 291 291 291 291 290 290 290 289 289 289 290 290 290 290 290 290 290 289 288 288 288 287 287 287 286 287 289 290 289 288 289 288 289 290 291 292 294 295 295 295 295 295 295 294 294 294 293 293 293 293 294 294 291 288 287 288 291 292 291 290 290 291 291 292 292 293 295 295 296 296 297 297 297 298 299 299 298 296
292 292 292 292 292 291 290 291 290 290 290 291 290 289 289 288 288 288 289 289 290 290 290 290 288 288 286 287 288 287 286 285 285 286 287 287 286 286 286 286 287 286 287 290 292 294 295 294 294 296 297 296 295 295 294 293 293 293 293 291 293 294 292 287 292 291 290 288 289 289 289 290 291 292 293 294 294 295 296 296 296 296 297 296 297 297 295
290 289 289 290 290 290 290 290 290 290 290 289 289 290 290 291 290 290 290 290 290 290 289 288 288 287 288 286 285 285 284 284 285 285 285 285 285 286 286 287 288 289 291 292 294 294 294 294 295 296 297 297 297 295 294 293 293 293 293 292 293 293 290 290 289 292 291 290 289 289 289 289 290 292 294 294 296 295 296 295 295 296 296 298 299 295 293
291 289 290 291 291 289 289 289 291 290 290 291 291 290 290 291 290 290 290 290 290 289 288 288 288 287 285 284 283 283 283 284 287 286 284 284 284 285 286 287 289 291 293 294 294 294 294 295 296 295 295 297 297 295 294 293 294 294 293 292 292 292 292 291 291 291 290 289 289 287 289 289 291 291 294 294 296 294 295 294 294 296 298 297 295 293 288
293 293 293 293 293 293 293 291 291 291 290 288 289 290 290 291 291 291 289 289 288 288 289 289 286 285 283 283 282 282 282 283 283 283 283 284 285 285 287 287 288 290 291 293 293 293 294 296 295 293 293 296 297 297 295 293 294 294 293 293 291 291 291 290 289 289 289 289 289 290 289 290 290 290 292 294 295 295 294 294 293 294 294 293 292 292 289
293 293 293 293 293 293 293 293 292 292 291 289 287 287 288 291 291 290 290 290 291 291 289 288 286 284 283 282 284 283 283 283 283 283 283 284 284 287 286 286 286 288 289 291 292 293 294 295 287 285 289 297 298 298 295 292 293 294 293 293 291 291 292 291 291 290 290 291 291 290 291 290 290 292 294 295 295 295 294 292 291 293 293 292 292 291 289
294 293 293 294 293 292 293 293 293 292 292 291 289 290 289 290 291 292 291 291 291 290 290 287 287 286 285 284 284 283 283 284 285 284 285 285 286 286 286 286 286 286 287 288 289 292 294 294 287 284 291 298 297 298 294 286 294 295 294 293 293 291 291 291 291 291 290 291 292 292 291 291 292 294 293 296 294 294 292 292 290 290 291 291 292 291 291
294 294 294 294 293 292 293 293 293 293 292 292 292 291 291 291 292 292 292 291 291 290 291 289 288 287 287 285 284 283 283 283 283 283 284 284 285 285 286 286 287 287 287 287 288 291 293 290 286 291 297 297 297 298 294 286 286 296 296 294 293 292 291 291 290 290 290 291 292 293 294 294 293 294 294 295 295 294 294 293 292 292 291 292 292 291 291
293 294 294 294 294 293 293 293 293 293 293 292 292 292 292 291 292 292 292 291 291 291 290 290 290 290 289 288 286 285 284 284 283 283 284 284 285 285 286 286 286 286 287 287 288 289 292 289 291 295 296 296 297 298 293 288 287 297 296 296 294 293 292 291 291 290 289 289 289 290 292 292 293 293 293 294 292 291 290 292 292 292 292 291 291 291 290
293 293 293 293 292 292 292 292 292 292 293 293 293 292 292 292 292 292 292 291 292 290 290 290 289 288 289 288 287 286 286 286 285 285 284 285 285 286 287 288 289 289 289 286 290 291 289 285 290 295 295 296 296 295 294 291 289 296 296 296 295 293 292 291 292 291 290 290 289 287 289 290 292 292 292 292 293 292 292 291 291 291 291 291 290 289 289
293 293 293 293 292 293 293 292 291 293 293 293 293 293 293 293 293 292 292 292 292 291 290 290 289 289 289 289 288 288 287 286 286 286 286 286 286 287 287 287 289 290 289 290 290 290 289 289 291 293 294 294 296 290 292 290 296 298 298 296 295 293 292 291 291 290 290 289 288 288 288 290 290 291 291 291 291 291 291 291 291 290 290 289 288 288 288
293 294 293 293 293 293 293 294 294 293 293 293 293 293 293 293 293 292 293 293 292 291 290 290 288 289 290 289 289 288 288 288 287 287 287 286 286 286 286 288 290 290 285 287 288 290 292 292 291 289 291 291 292 287 284 292 297 297 297 296 296 294 293 291 290 290 290 289 289 288 288 289 289 290 289 289 289 289 289 289 289 288 288 288 288 289 289
293 293 293 293 293 293 294 294 293 293 293 293 293 293 293 294 293 293 293 293 292 291 290 290 290 287 287 289 289 288 288 288 288 288 288 289 288 289 287 288 291 289 284 288 290 292 292 292 291 291 286 285 288 285 285 295 297 297 296 295 294 294 294 293 292 291 291 290 289 289 289 287 288 288 288 288 287 287 288 287 287 288 288 288 288 289 290
293 294 294 293 293 293 294 294 294 294 293 293 294 294 294 294 293 293 293 293 292 290 290 290 290 289 289 289 288 288 287 287 288 288 289 289 289 289 290 289 289 287 284 288 291 291 291 290 290 285 284 284 284 284 292 296 295 296 296 295 294 294 294 294 294 293 292 290 289 289 288 288 288 288 288 287 287 288 288 288 288 288 289 289 290 290 290
294 294 294 294 294 294 293 293 293 293 294 294 295 294 294 293 293 294 294 293 292 291 290 289 289 289 289 289 289 289 289 288 288 288 287 287 287 288 289 286 288 287 288 285 290 290 290 288 285 282 284 284 284 285 293 294 294 293 294 293 294 294 293 292 292 293 292 293 291 290 289 289 289 289 288 288 287 288 289 289 289 289 289 289 289 289 290
294 294 295 291 294 294 294 294 295 295 294 294 294 293 293 293 293 294 294 294 293 292 292 291 290 289 290 290 290 290 289 288 288 289 289 289 288 289 288 286 288 285 284 284 289 290 289 283 282 283 283 284 284 290 292 292 291 293 293 293 292 291 292 292 291 291 290 291 291 292 292 291 290 289 289 289 289 289 288 288 289 290 290 291 290 291 290
293 294 294 294 294 295 295 295 295 295 294 293 292 292 293 294 293 294 294 294 294 293 293 292 291 291 290 290 290 289 288 288 289 289 290 290 288 287 285 284 284 284 285 288 289 288 287 286 284 283 283 284 284 291 291 291 291 291 291 291 290 291 291 291 291 291 291 290 289 288 288 290 291 291 289 288 288 288 288 288 288 288 287 287 287 287 287
293 293 293 293 293 294 295 295 294 293 293 292 292 293 293 294 295 295 295 295 295 294 293 293 292 292 291 291 290 291 290 290 287 288 290 291 291 289 289 290 287 284 284 284 284 284 280 281 282 282 283 283 288 291 291 291 291 291 290 290 290 290 290 290 290 289 290 289 290 290 289 289 289 289 288 288 288 287 287 287 287 287 288 288 287 287 286
292 292 292 293 293 294 294 293 293 292 293 293 293 293 294 294 294 294 294 295 294 294 293 293 292 292 292 290 290 290 290 290 289 288 290 290 290 289 289 284 282 282 285 288 289 288 283 280 282 282 283 285 290 290 290 290 289 289 289 289 288 289 289 290 290 289 289 288 288 288 288 287 288 288 287 286 286 286 285 285 285 285 285 285 285 285 285
293 293 293 292 292 292 293 293 292 292 293 293 293 294 295 294 292 292 293 294 294 292 293 293 292 292 292 292 291 291 291 290 289 289 289 289 290 289 288 288 287 284 285 289 289 287 283 280 282 284 286 290 290 289 289 289 289 288 287 287 287 287 287 287 286 286 289 288 288 287 287 286 286 285 285 286 285 285 284 284 283 282 282 283 283 283 284
293 292 292 292 293 293 294 293 293 293 294 294 294 294 294 293 292 292 294 294 294 293 292 293 292 293 292 292 292 292 291 291 289 287 289 289 289 287 286 287 286 285 285 286 287 288 289 289 288 287 287 288 289 289 288 288 288 287 286 287 287 287 286 286 287 288 289 288 288 288 288 287 287 287 286 285 285 285 285 284 284 284 284 284 283 283 283
294 294 295 294 294 295 295 295 294 294 295 294 294 294 293 293 292 292 293 289 293 293 293 292 291 292 293 292 291 292 292 291 290 289 287 288 289 289 286 285 287 286 285 287 288 289 288 287 285 284 285 288 288 287 285 285 287 287 286 286 286 287 286 287 286 286 286 287 287 287 287 288 288 287 286 286 286 285 285 285 285 284 284 284 283 283 283
Wind_Speed
5 5 9 8 8 9 8 9 8 9 7 5 3 5 6 8 3 4 8 11 13 9 8 8 7 6 7 8 8 8 11 11 11 11 11 11 10 11 13 13 12 13 13 12 12 11 11 11 10 9 8 8 7 6 6 5 5 5 4 3 4 4 4 3 3 3 4 3 3 5 7 7 7 6 8 10 9 9 8 8 7 8 8 8 7 8 7
8 7 7 8 8 6 8 9 10 10 11 10 9 9 9 9 8 8 11 15 13 8 8 7 7 6 8 8 9 9 11 11 11 11 11 12 12 12 13 13 13 13 13 13 13 12 12 11 11 10 8 7 7 7 7 6 6 6 5 4 4 3 3 4 3 3 4 4 4 4 4 5 6 7 8 8 7 7 7 7 7 7 7 7 7 7 7
5 4 5 5 7 6 4 5 5 6 6 9 8 8 8 6 10 9 11 13 10 7 7 9 7 8 9 9 11 11 10 10 11 12 13 12 13 13 13 13 13 13 13 13 13 13 13 12 11 10 9 9 8 8 6 6 6 4 4 5 5 3 4 3 3 2 2 2 2 3 3 4 4 5 6 6 7 7 7 7 7 6 6 6 6 6 6
5 4 1 4 2 4 6 7 4 5 5 3 5 4 5 4 5 8 9 7 6 7 8 9 10 10 11 12 11 11 9 10 10 12 12 13 13 13 13 13 13 13 13 13 13 13 12 12 11 10 9 9 9 9 8 7 6 5 5 4 4 4 3 3 2 2 1 2 2 2 3 4 4 5 5 5 6 5 6 7 7 5 4 2 2 2 2
6 8 4 3 2 3 4 10 2 4 5 6 7 5 6 5 5 2 1 6 8 10 9 11 11 11 11 11 10 11 13 13 13 13 12 11 12 13 13 13 13 13 12 12 12 11 11 10 10 10 9 9 9 8 8 6 6 6 6 5 5 4 3 2 3 2 1 0 0 1 2 3 3 3 4 4 4 5 3 4 6 5 5 1 1 1 3
3 8 7 6 4 9 7 4 0 2 3 5 5 4 4 5 4 3 6 10 9 9 10 11 12 12 11 11 11 11 9 9 6 9 10 11 12 14 14 14 14 13 11 10 11 11 11 10 10 9 9 8 7 7 6 6 6 5 5 5 5 5 4 4 3 2 2 2 1 1 1 2 3 4 4 4 3 3 3 3 4 3 4 2 4 4 4
4 7 8 6 9 7 6 2 4 3 4 9 13 9 7 7 7 10 12 11 10 10 10 13 14 14 14 13 13 13 13 13 12 12 12 12 12 12 12 13 12 12 11 11 11 11 10 10 9 9 9 8 7 6 6 6 6 5 5 5 4 4 4 3 3 3 2 2 1 1 0 1 3 4 4 4 5 4 4 4 4 4 4 5 5 4 5
4 5 7 6 3 5 1 4 4 5 8 12 14 11 8 6 7 8 10 10 11 11 11 12 13 15 14 13 12 12 11 11 10 6 4 5 10 12 11 12 12 12 12 11 11 10 9 10 10 10 10 8 7 7 6 6 5 5 4 4 5 4 3 2 3 2 1 2 1 0 1 1 3 3 4 4 5 5 6 5 6 7 5 4 4 3 3
6 5 9 2 4 5 5 4 6 3 4 5 2 3 4 4 3 7 11 12 12 12 12 12 12 13 12 11 10 9 10 6 6 8 7 7 6 3 7 10 10 12 13 13 11 10 10 11 10 10 9 9 8 7 7 6 6 5 5 5 5 4 3 3 3 4 3 3 2 2 1 3 3 4 4 5 5 5 6 6 6 7 7 6 6 8 9
3 5 7 3 4 6 5 4 5 3 2 4 3 6 6 4 4 7 11 12 12 12 11 10 9 8 7 7 7 7 8 8 9 9 8 8 9 9 8 7 7 8 8 8 10 10 10 10 11 10 10 9 8 7 7 7 7 6 6 6 6 6 5 5 4 3 3 4 4 5 4 5 5 4 4 4 5 5 6 7 8 8 8 8 7 7 7
4 6 7 7 7 2 3 7 5 3 1 4 3 3 5 5 5 5 9 10 10 10 9 8 5 5 4 6 7 6 7 8 8 8 8 9 9 9 9 10 10 9 9 9 9 8 9 11 11 11 11 10 9 8 8 8 8 6 6 7 7 7 7 6 6 5 4 4 4 5 5 5 4 4 4 5 6 5 6 6 6 7 7 7 7 6 5
1 5 8 6 2 3 2 2 2 4 3 1 4 5 5 10 6 5 7 8 7 5 3 4 1 5 3 7 6 5 6 7 8 8 8 8 9 9 9 10 10 9 9 9 10 10 10 10 10 10 9 9 9 8 8 8 7 7 6 6 6 6 6 6 6 5 4 5 5 5 5 5 4 4 3 5 6 7 6 6 7 7 7 7 8 6 5
2 2 3 1 2 3 2 3 4 4 2 3 5 6 8 10 9 7 7 8 5 4 3 1 3 7 8 8 7 5 5 5 7 6 7 7 7 8 8 8 9 8 8 8 8 9 8 9 9 9 8 8 8 7 7 7 7 6 6 6 7 7 7 7 7 6 5 5 6 6 7 6 5 5 5 5 5 7 7 7 8 8 8 8 8 8 6
8 8 8 5 4 3 3 1 2 1 2 4 3 6 7 11 11 8 8 9 8 8 9 8 8 7 7 7 6 6 6 7 6 6 6 6 6 6 6 6 6 7 7 6 7 7 7 8 8 8 8 8 8 8 8 8 8 7 7 7 8 8 8 8 8 8 7 6 5 5 6 6 7 7 6 7 6 7 7 6 7 8 7 7 7 7 7
1 2 4 2 6 4 3 3 4 1 5 4 6 9 10 9 10 9 9 8 8 7 8 8 8 7 7 6 6 5 5 6 7 7 7 7 8 8 8 8 7 8 8 7 8 8 7 7 6 7 8 9 8 8 8 9 9 8 7 8 9 9 9 9 9 8 8 8 6 5 5 6 7 8 8 8 9 8 8 8 8 7 7 6 6 7 6
4 6 6 1 5 3 3 5 1 6 8 7 8 9 10 8 7 7 7 8 7 7 6 6 6 6 5 5 5 5 5 6 6 6 6 7 7 7 7 7 7 8 7 7 7 7 7 6 7 6 7 8 8 9 10 9 9 9 9 9 8 9 9 9 9 9 9 8 8 7 7 6 6 7 9 10 9 9 10 10 9 9 8 8 8 8 8
3 4 4 4 3 4 5 8 10 10 9 7 7 7 8 8 6 5 7 7 7 6 5 5 5 3 5 5 5 5 5 6 6 7 7 7 7 7 7 6 6 6 6 7 7 7 6 7 7 6 6 7 9 10 9 9 10 10 10 10 10 10 10 10 10 10 9 9 8 8 8 8 8 8 9 10 11 11 11 12 11 11 10 9 9 9 8
9 9 8 6 6 7 8 8 9 10 10 9 8 8 8 8 8 6 6 6 6 6 5 3 3 4 4 4 4 4 4 4 4 4 5 5 5 5 6 6 7 8 7 7 6 7 8 8 7 6 6 7 9 9 9 9 9 10 10 11 11 11 11 11 11 11 11 12 11 10 10 9 9 9 9 9 10 11 12 12 12 12 11 10 10 9 9
3 4 6 8 9 8 9 9 9 10 9 9 8 9 8 7 7 7 6 6 5 5 5 4 3 3 3 3 3 3 3 4 4 5 5 6 7 7 8 8 9 8 8 8 8 10 10 9 8 8 8 8 8 8 9 9 9 10 10 11 11 12 12 12 13 13 13 12 11 11 10 9 10 10 9 10 11 12 13 12 13 13 10 10 14 14 11
0 7 8 8 7 6 5 6 6 7 8 8 8 7 7 6 6 5 5 4 4 2 4 4 3 3 3 4 5 4 4 4 4 5 6 8 8 8 8 8 9 9 10 10 11 11 11 10 9 9 8 8 9 9 10 10 10 10 10 9 10 11 12 12 11 12 12 12 12 12 12 11 11 11 11 11 11 12 13 13 12 12 12 15 12 12 12
7 9 8 7 8 7 5 5 5 6 6 7 7 7 7 6 6 5 5 5 4 4 4 3 3 3 4 5 5 5 4 4 5 6 7 7 8 8 9 9 9 8 8 8 9 9 8 8 8 8 9 9 9 10 10 10 10 11 11 13 13 14 12 10 11 12 12 13 12 12 12 12 12 12 12 11 10 10 10 11 8 10 13 12 11 11 12
5 5 8 10 5 6 7 6 6 6 6 6 6 4 4 3 3 3 3 4 4 4 4 3 4 4 4 5 6 6 5 5 6 6 6 7 7 8 7 7 7 6 6 7 8 8 8 9 9 10 11 11 11 11 11 11 11 12 13 13 13 13 13 13 12 10 10 12 13 12 12 13 12 11 3 3 3 5 7 6 8 5 6 2 2 5 8
1 6 11 4 4 5 7 8 7 5 4 4 3 3 2 3 2 2 2 2 3 3 4 4 3 4 4 6 6 6 6 6 5 5 5 6 6 6 6 6 6 7 8 8 9 10 10 10 10 11 12 13 13 13 12 12 13 13 13 12 12 13 13 12 12 13 13 12 12 12 13 13 11 12 9 5 4 5 5 5 5 5 4 4 3 6 5
8 5 8 4 2 4 7 7 6 5 3 2 3 3 3 3 3 3 2 3 3 2 2 2 3 4 5 5 6 6 6 5 5 5 5 6 5 6 6 6 7 8 9 9 9 9 9 9 10 12 13 13 13 13 12 12 12 12 13 12 12 12 12 13 13 12 12 13 14 13 12 14 15 13 12 12 7 5 5 2 3 3 4 3 5 7 9
6 5 6 6 7 7 7 6 5 4 3 1 2 2 2 1 2 2 2 2 3 3 3 3 4 4 5 5 6 6 6 6 5 6 7 5 5 5 6 6 7 8 8 8 8 8 9 10 11 12 13 13 13 13 12 12 12 12 13 12 13 13 12 13 13 13 13 13 13 14 13 13 13 14 14 12 13 8 5 5 5 4 4 1 4 9 10
6 7 7 7 6 6 4 4 4 3 3 2 2 0 2 3 4 1 2 2 1 1 3 3 4 3 4 4 5 5 5 5 5 5 5 4 4 4 5 5 6 6 8 8 8 9 9 11 12 12 13 13 13 12 12 12 12 12 13 13 14 13 12 13 13 12 12 12 13 13 13 12 12 13 13 13 12 11 8 7 6 6 7 7 4 3 8
6 6 6 5 5 4 4 2 2 4 2 1 1 0 1 4 4 2 2 1 1 3 3 3 3 3 3 3 4 4 4 4 4 4 4 4 4 4 4 5 6 7 8 8 9 9 10 11 11 12 13 13 12 12 12 12 12 12 13 13 13 13 15 13 12 14 12 11 11 12 12 12 12 13 13 12 11 11 11 7 7 7 8 6 7 8 5
5 4 0 1 2 3 4 3 2 3 3 2 1 2 4 3 3 3 2 1 0 1 1 2 3 4 4 4 4 4 4 4 4 4 4 4 4 4 5 7 7 8 7 7 8 9 10 11 11 12 13 13 12 12 12 12 12 12 12 13 13 13 13 13 12 13 13 13 11 10 11 11 11 12 12 12 11 9 9 6 7 8 6 5 7 9 10
5 4 2 3 3 3 3 4 3 3 3 2 2 3 4 5 4 2 2 1 1 2 2 2 2 3 3 3 4 4 5 5 5 5 5 5 5 5 6 7 8 8 7 6 7 9 10 10 11 13 13 13 12 12 12 12 12 12 12 12 11 11 10 10 11 11 12 12 11 10 9 9 11 11 11 11 10 9 8 7 6 4 5 7 7 7 8
5 4 3 3 3 3 4 4 3 3 3 3 4 4 4 4 4 3 1 2 2 3 3 3 3 3 3 4 4 5 5 5 4 6 6 6 5 6 6 8 8 7 5 6 8 9 10 11 12 13 13 13 13 12 12 12 11 12 12 12 12 10 10 10 10 10 9 9 9 8 7 8 10 11 11 11 10 9 7 5 4 4 4 6 6 5 5
5 4 3 3 3 4 4 2 2 3 3 4 5 5 5 4 4 2 2 2 2 3 3 4 3 4 3 2 2 2 2 2 3 4 4 5 5 5 6 7 6 5 5 7 8 9 10 11 11 12 12 12 12 12 11 11 11 11 10 10 10 12 7 7 9 8 6 6 6 7 6 7 8 10 10 10 9 8 7 4 3 3 3 6 7 7 8
7 6 6 5 5 5 4 3 3 3 4 5 6 6 5 5 5 4 3 3 3 4 4 4 3 2 2 2 2 1 1 2 3 3 3 3 5 5 5 6 5 7 7 9 8 8 9 10 11 12 13 12 11 11 11 11 10 10 10 10 9 9 9 10 8 4 3 2 4 5 4 6 7 9 10 9 7 7 5 4 4 3 3 5 5 6 7
7 7 6 6 6 6 4 4 4 4 5 6 4 5 4 4 3 3 3 3 3 3 2 1 1 1 0 0 0 1 2 3 4 4 1 4 5 6 6 5 4 5 6 7 7 7 8 9 10 12 12 11 13 12 11 11 9 9 9 9 9 8 9 7 6 5 1 3 3 4 4 4 6 8 8 8 7 5 4 3 3 4 4 6 6 8 8
5 3 1 5 6 5 5 5 5 5 5 5 5 5 4 4 3 3 3 3 3 2 1 1 0 1 1 0 1 1 2 4 2 1 4 5 6 6 6 4 6 7 6 7 6 6 6 8 9 10 11 11 12 11 11 10 9 8 8 8 8 8 8 8 8 6 4 2 2 2 3 3 6 7 6 7 6 4 4 3 3 5 4 6 7 7 11
3 3 3 3 4 4 3 3 5 6 6 4 5 4 4 3 3 2 1 3 2 1 1 0 1 2 1 1 1 1 1 2 3 4 5 5 5 6 4 6 7 6 6 4 5 6 7 7 9 11 11 10 11 10 10 11 10 9 9 8 8 7 7 7 6 6 4 2 0 1 1 3 3 5 5 6 5 4 3 4 5 5 3 4 6 9 8
5 5 4 3 3 3 4 4 4 6 6 5 3 1 2 3 3 3 3 3 2 2 1 2 2 2 2 3 3 3 2 2 3 4 4 5 5 3 3 4 5 5 5 5 4 8 8 7 9 13 11 8 9 10 9 10 9 9 8 8 8 8 8 8 7 7 6 4 4 3 3 1 1 1 3 5 5 6 5 4 4 4 4 5 7 9 9
5 4 4 3 3 4 5 5 5 6 6 6 6 6 6 5 4 2 2 2 2 2 3 2 2 2 3 3 1 1 3 2 1 2 3 3 2 2 3 3 3 4 5 3 5 9 8 8 12 16 11 6 8 9 9 10 8 9 9 9 9 8 8 8 8 8 8 6 5 5 4 5 4 5 5 5 6 6 6 5 6 6 5 5 7 8 9
5 4 4 4 4 4 5 5 5 6 6 6 6 5 4 3 2 2 2 2 2 3 3 4 3 2 2 3 3 3 2 2 2 3 4 4 2 3 3 2 3 3 4 5 7 9 7 10 13 10 6 7 7 8 7 10 13 8 9 9 9 9 9 9 9 8 7 7 8 6 5 4 5 4 5 6 6 6 6 5 7 7 6 7 7 7 7
5 4 3 3 4 4 5 5 5 5 5 6 6 5 5 3 2 3 3 2 1 2 3 4 3 3 3 2 1 2 2 2 2 2 2 4 2 2 2 2 2 2 3 5 7 6 7 9 10 7 6 7 8 7 7 8 13 8 9 9 10 9 10 10 9 9 9 9 8 8 8 8 8 8 6 8 8 8 9 8 8 9 7 8 8 7 6
6 6 6 5 5 5 5 6 6 6 5 5 5 5 5 4 4 3 2 3 2 2 3 3 4 4 3 2 2 2 3 2 1 1 2 3 3 4 4 3 2 2 4 7 5 3 7 11 9 6 6 6 7 7 7 9 11 6 8 8 8 9 9 10 10 9 9 9 9 9 9 9 9 8 9 9 10 10 10 9 9 9 10 9 8 7 7
5 5 5 5 6 6 6 6 6 6 6 6 6 5 4 4 3 3 3 3 2 2 3 3 4 3 3 2 2 0 2 3 2 2 3 5 4 3 2 0 3 3 5 7 6 6 7 7 7 7 7 7 5 8 7 9 7 6 7 8 8 8 8 9 9 9 9 9 9 10 9 9 9 9 9 9 10 10 9 9 9 9 9 8 8 7 7
6 6 6 6 5 6 6 6 6 6 6 6 6 6 6 5 4 4 3 2 2 2 3 3 1 4 3 2 1 1 2 3 3 4 3 3 3 2 2 2 3 3 7 8 6 5 4 4 5 6 7 8 7 9 11 8 5 6 6 7 7 7 7 8 8 9 9 9 9 9 10 10 9 9 10 9 9 9 9 8 8 8 7 8 8 8 7
6 7 6 6 5 5 5 6 6 6 6 6 6 6 6 5 5 5 4 3 3 3 3 3 3 4 5 4 3 3 3 3 4 4 4 4 2 1 3 3 3 4 6 5 5 3 4 4 5 5 8 9 8 12 13 5 5 5 6 6 7 7 8 8 8 8 8 8 8 9 9 8 9 9 8 8 8 7 7 8 7 7 8 7 7 7 7
7 6 6 6 5 5 5 5 5 6 6 6 6 6 6 6 5 5 4 4 4 3 3 3 3 4 4 4 4 3 3 3 4 4 4 3 4 3 1 2 3 3 2 5 3 3 3 5 5 8 10 10 11 12 7 5 5 5 5 6 6 7 7 8 8 8 8 8 8 8 8 8 7 7 7 7 7 7 7 7 6 7 7 7 7 7 7
7 7 7 6 6 5 6 5 6 6 5 5 5 6 7 7 6 5 5 4 4 3 3 3 3 3 4 4 4 3 2 1 2 2 2 2 1 3 3 3 1 1 2 7 3 2 4 5 6 9 8 9 10 12 4 4 5 5 5 5 5 6 7 7 7 8 8 8 8 7 7 7 7 7 7 7 6 6 6 6 6 6 7 7 7 7 7
8 8 8 7 7 7 6 6 5 5 5 5 6 6 7 7 7 6 5 5 5 4 4 3 3 3 4 4 4 3 2 2 2 2 2 2 2 3 4 2 2 3 4 7 2 2 4 4 5 6 8 8 11 7 3 3 4 4 5 5 5 5 6 6 7 7 7 7 7 7 7 7 7 7 6 6 6 6 6 6 7 7 6 7 7 6 6
7 7 8 8 8 8 7 6 5 5 6 6 6 6 6 8 8 7 6 6 5 5 4 4 3 3 3 4 4 4 4 3 3 3 3 2 2 2 5 3 2 2 4 2 3 3 4 4 5 7 8 9 11 3 3 3 4 4 5 5 5 5 5 6 6 6 7 7 7 8 8 8 7 7 8 7 7 6 6 6 6 6 6 7 6 7 6
6 7 7 7 8 7 6 6 7 7 8 8 7 6 5 6 7 8 7 6 5 6 5 5 4 4 4 4 4 4 3 2 2 4 3 3 2 3 4 3 4 5 3 5 4 4 3 4 5 7 7 10 5 4 3 4 4 5 5 5 5 5 4 4 5 4 5 6 5 6 5 5 6 6 5 6 6 6 5 5 5 5 5 5 5 5 5
4 5 5 5 5 6 7 7 7 7 7 8 8 7 6 6 6 7 7 7 7 6 6 6 6 5 5 5 4 3 3 3 3 1 3 3 3 3 4 6 4 5 6 1 1 2 4 3 4 6 8 9 2 3 4 5 5 5 5 4 4 4 5 4 4 4 5 6 6 6 6 6 6 5 5 5 6 5 6 6 5 5 4 4 5 5 5
5 5 5 5 6 6 6 6 6 6 6 6 7 6 5 5 6 6 6 7 7 7 6 6 6 6 5 5 5 5 4 4 3 1 1 2 2 2 3 4 4 2 5 1 2 2 5 3 5 4 6 1 3 3 4 4 4 5 4 5 6 5 7 7 8 8 7 7 7 7 7 6 6 7 7 6 6 6 6 6 6 7 8 5 4 4 4
5 5 6 6 6 6 7 7 7 6 6 6 5 5 5 6 6 6 6 6 6 7 7 6 6 6 6 5 5 5 5 5 4 4 3 3 3 2 2 3 4 4 3 2 1 1 1 2 1 1 1 1 1 2 2 3 2 3 3 3 3 5 5 5 5 5 6 5 6 6 6 6 6 7 6 6 6 6 6 6 6 5 5 5 5 5 4
6 5 5 5 5 5 5 6 7 7 6 6 5 5 6 6 6 6 6 7 7 7 7 7 7 6 6 6 6 6 6 6 5 6 5 4 4 4 4 4 4 4 4 3 1 2 0 1 1 3 5 1 1 3 4 1 3 3 3 5 4 4 5 5 5 4 4 5 4 5 6 5 5 6 6 6 6 7 6 6 6 5 5 6 5 6 5
Wind_Direction
84 50 43 42 63 62 75 70 67 63 60 85 100 37 4 334 273 263 122 125 109 103 103 109 104 101 105 109 105 113 118 122 126 127 123 119 107 93 88 84 83 82 80 78 78 76 82 90 91 93 97 96 97 96 87 88 87 89 96 108 127 129 136 144 147 155 157 165 196 200 209 215 215 213 237 236 228 222 208 208 208 211 211 214 205 207 194
123 81 54 39 52 64 72 66 63 60 62 66 72 68 53 51 67 78 109 96 90 85 107 101 93 88 102 110 122 121 121 119 121 121 117 109 101 95 90 87 84 82 81 78 74 73 69 66 70 74 76 78 83 84 85 86 92 94 94 92 96 104 117 103 111 123 136 158 185 188 213 218 217 217 216 216 223 221 217 215 208 209 213 218 221 218 212
139 109 113 74 39 24 48 25 26 37 55 69 58 67 50 78 82 88 99 94 89 78 95 96 96 104 103 102 103 105 107 116 112 108 103 101 99 98 95 92 89 86 84 83 82 78 75 69 66 66 67 70 72 72 71 79 79 81 81 90 97 92 89 87 87 101 129 133 178 199 204 212 219 226 219 209 217 222 222 220 221 219 223 220 225 228 227
186 185 115 92 58 23 337 318 355 13 19 50 33 32 3 357 110 123 124 105 99 113 110 100 96 94 89 86 86 89 93 95 93 94 97 99 99 97 93 90 87 84 80 77 76 77 76 76 74 72 72 74 71 66 59 56 59 66 71 73 80 87 88 105 106 109 130 157 202 183 205 213 217 222 224 216 216 223 224 225 224 223 228 249 275 257 269
214 165 149 147 66 326 288 248 110 70 81 97 94 62 36 25 339 181 159 92 115 128 125 110 96 85 73 64 66 72 62 51 58 59 57 71 81 80 78 78 77 74 70 67 66 68 71 67 66 65 69 68 60 59 64 62 70 68 68 65 69 69 68 81 91 97 125 121 35 199 230 219 208 222 228 227 220 221 244 347 340 332 323 8 145 260 232
167 140 140 130 182 227 235 57 266 14 116 153 116 64 25 23 358 56 74 110 118 128 127 110 101 86 78 79 67 62 76 77 59 57 69 62 59 61 60 61 61 59 58 58 57 57 60 62 59 57 52 53 62 58 56 61 53 58 68 68 55 56 58 65 65 68 73 85 103 104 190 216 216 220 216 216 211 185 117 150 158 143 153 229 278 270 273
180 143 135 179 216 222 49 275 115 150 102 106 103 91 61 70 88 107 109 116 115 102 97 99 98 92 85 73 68 61 59 65 67 62 43 28 42 55 58 54 50 52 53 49 48 47 48 51 52 49 44 37 39 53 51 53 52 46 46 54 62 57 52 48 56 34 34 52 37 71 158 202 222 226 223 203 194 180 212 200 177 164 169 194 204 228 241
99 173 177 194 207 54 55 88 117 117 127 122 110 83 71 69 107 117 111 111 111 112 110 108 107 106 98 80 67 61 52 54 65 62 56 52 31 28 30 33 33 33 36 40 35 37 38 40 40 37 34 24 30 37 36 39 40 40 32 42 49 34 27 20 13 21 360 45 65 177 230 238 231 217 205 198 195 184 190 180 167 173 185 195 181 187 239
219 212 210 230 94 158 111 126 135 178 150 181 234 136 94 70 87 133 123 120 121 121 122 124 123 121 111 94 81 75 82 90 77 71 67 74 89 85 30 27 32 25 16 22 23 27 32 30 30 26 20 14 15 23 26 23 17 27 32 32 25 22 4 11 359 335 326 289 270 246 218 230 225 233 220 208 201 184 184 183 178 175 172 174 171 177 186
242 228 202 178 198 232 154 112 114 31 9 356 329 105 104 110 93 126 132 130 129 130 132 137 144 160 140 101 90 71 65 64 69 74 73 65 54 56 60 56 55 47 36 22 19 12 16 26 23 15 10 7 3 9 13 9 5 12 19 23 14 17 4 352 338 336 327 316 295 284 273 262 260 243 222 206 191 182 176 169 167 161 159 158 159 158 166
193 234 233 218 224 88 63 115 131 73 41 273 306 217 132 138 129 133 140 133 138 138 144 145 176 217 184 104 97 71 60 59 49 53 50 45 44 45 41 31 22 24 20 16 16 19 19 17 13 8 4 0 1 357 1 358 354 2 12 5 3 359 352 345 332 326 315 315 313 304 284 268 278 258 209 188 171 182 175 171 156 158 164 160 157 151 136
209 240 226 223 39 90 100 79 24 20 356 167 252 214 172 150 147 132 143 136 136 129 129 180 151 334 206 119 92 70 66 65 55 40 35 31 26 28 25 23 10 4 5 4 8 10 11 9 3 360 358 355 352 347 347 343 340 347 355 350 343 337 331 327 319 315 314 308 308 302 299 300 279 260 225 189 176 190 187 190 174 171 172 163 157 143 137
187 213 238 21 138 92 80 18 1 21 269 255 202 231 112 142 130 125 114 110 102 115 128 158 99 68 60 77 88 76 55 55 50 44 36 28 22 19 16 15 359 355 356 0 357 358 354 352 349 348 347 344 337 335 330 323 324 330 334 327 326 324 318 311 309 314 320 318 320 314 300 291 286 261 247 235 206 206 202 203 183 181 179 172 164 155 156
214 208 221 218 73 48 47 93 33 301 190 180 228 74 122 121 123 112 104 93 79 74 69 72 82 85 77 74 64 55 43 35 32 17 17 15 14 17 16 3 2 354 342 345 346 350 348 343 339 335 333 326 320 319 316 309 314 317 317 319 314 310 307 308 311 310 310 316 316 307 305 297 281 268 255 244 233 221 221 214 199 193 186 180 172 163 157
26 203 217 197 236 93 345 23 150 42 265 70 104 125 111 113 106 104 89 80 76 74 81 74 79 79 67 56 44 38 31 16 10 4 4 4 357 357 353 350 5 353 338 343 346 340 337 337 335 328 322 310 304 301 295 302 307 310 313 308 303 303 305 303 300 298 296 295 296 294 292 292 283 272 260 241 231 227 221 212 200 188 183 184 181 171 161
262 213 212 239 34 92 40 308 136 73 74 112 118 116 116 108 109 99 95 73 64 63 69 78 73 61 52 48 31 12 15 4 359 1 1 360 354 352 351 348 356 345 331 335 332 330 328 332 327 321 310 304 302 298 293 298 300 299 297 294 296 291 289 288 288 287 285 282 278 276 276 277 273 268 259 249 235 225 218 218 211 201 198 192 196 191 182
10 26 62 94 110 78 74 73 88 92 98 108 111 104 110 122 98 83 88 84 69 53 58 66 48 58 47 25 22 6 359 359 2 359 357 353 349 345 342 340 348 333 331 326 324 324 329 329 325 320 316 306 305 297 300 303 295 292 289 288 285 283 280 280 279 278 278 277 275 270 267 264 262 256 252 246 240 233 222 217 214 208 207 200 200 206 187
93 73 73 96 112 103 93 91 93 93 90 82 91 98 97 70 63 58 74 75 67 58 35 37 63 48 33 25 23 9 4 0 5 350 343 345 343 338 335 337 348 333 327 324 325 329 329 331 326 321 315 310 303 305 310 308 304 302 297 290 282 276 274 272 273 274 274 272 268 265 261 257 255 256 255 251 243 234 230 225 220 219 215 208 220 215 187
190 90 115 107 110 117 102 92 81 70 68 71 71 76 76 81 78 77 72 74 74 66 60 57 56 68 53 39 30 11 4 2 357 350 347 346 347 344 347 347 343 336 336 332 335 332 330 329 326 321 317 312 307 307 306 303 301 300 300 296 289 282 276 272 266 262 261 259 260 258 254 251 249 247 245 243 246 241 237 230 225 225 211 222 222 220 220
64 122 133 122 102 111 120 111 96 92 89 88 89 94 102 103 98 102 111 125 96 87 71 54 51 67 62 31 19 8 8 2 352 349 353 348 349 348 344 341 341 332 334 334 331 330 327 328 327 325 323 321 318 316 313 310 306 300 292 290 291 292 290 286 278 271 264 258 259 259 258 256 254 247 241 239 242 244 237 232 231 229 221 223 215 231 236
100 115 136 140 137 130 136 145 101 109 115 111 112 111 116 118 106 101 86 63 56 60 64 53 36 36 47 35 15 4 357 359 356 355 349 348 342 342 339 342 340 338 336 335 333 332 331 329 327 320 318 315 313 312 310 308 306 302 299 298 294 287 280 278 280 277 272 269 264 262 259 255 251 248 246 239 232 236 251 258 262 252 230 221 223 221 217
168 161 154 166 161 163 150 147 131 117 107 109 107 106 88 84 81 70 75 80 72 78 62 42 36 27 27 23 10 358 358 356 354 347 345 340 344 346 350 344 346 345 343 334 330 327 325 324 320 319 315 313 310 309 309 307 303 298 294 290 287 286 289 283 275 272 276 271 262 257 256 255 255 252 65 24 307 278 251 25 46 50 19 293 339 270 230
153 101 137 145 30 57 125 140 134 134 112 119 129 104 94 92 85 69 45 94 121 98 90 58 37 22 6 6 358 348 349 348 344 339 337 341 345 347 345 343 343 343 335 332 326 326 325 324 321 319 316 313 311 307 305 298 297 294 292 288 284 283 282 278 287 291 278 272 276 271 258 252 251 251 240 176 193 217 267 276 320 329 213 163 135 50 34
73 100 130 77 31 104 124 130 131 134 136 94 87 78 68 59 55 55 63 59 40 49 63 79 37 359 353 350 349 343 340 335 332 328 333 330 328 330 329 331 330 330 331 329 327 322 322 321 321 319 313 311 310 308 303 300 297 294 290 286 282 279 277 280 280 275 273 275 269 266 270 262 251 247 252 242 192 156 180 196 204 226 275 186 109 84 97
89 99 103 81 87 93 104 115 113 113 117 11 40 63 57 57 82 42 73 70 49 17 354 346 354 359 343 344 342 343 334 328 325 328 317 307 307 310 312 317 325 329 325 321 317 319 322 326 323 318 312 312 312 308 304 300 296 291 286 282 279 276 276 275 272 272 269 267 267 266 263 258 253 251 245 247 242 198 135 122 144 153 117 39 135 117 97
96 105 101 91 91 102 114 120 124 121 122 150 137 311 66 6 34 97 74 51 350 357 339 336 328 339 347 334 340 333 327 324 327 308 292 303 309 305 307 316 320 320 317 316 315 319 324 325 318 312 311 312 313 310 306 301 297 291 288 283 277 274 270 267 265 267 267 267 266 265 260 259 252 243 242 244 247 243 202 166 146 117 101 89 111 150 109
104 118 130 128 127 131 167 262 86 157 164 153 269 146 261 130 165 225 81 75 27 358 335 337 325 321 322 331 328 329 330 327 306 284 298 296 297 301 311 314 319 319 314 315 319 323 319 315 316 313 310 311 311 309 305 302 295 290 285 281 277 272 263 259 261 260 258 262 264 263 265 262 253 243 240 237 242 242 240 200 186 189 185 139 89 49 93
125 126 167 287 150 151 168 140 119 161 178 184 219 235 176 170 170 172 183 208 219 1 326 301 322 324 319 335 332 329 335 326 327 311 297 291 297 309 315 322 318 317 318 320 318 319 322 322 317 310 309 314 315 312 308 305 300 294 289 283 279 274 272 262 256 252 251 251 252 257 261 261 260 252 238 237 233 240 241 244 210 179 169 120 99 70 77
141 130 98 56 59 72 106 121 149 176 186 222 252 208 169 185 187 202 219 248 336 301 290 345 329 300 312 324 331 336 335 333 324 318 305 303 311 318 325 320 318 313 309 315 321 328 327 325 318 312 315 322 324 323 317 311 304 299 297 296 294 291 284 278 272 265 251 243 242 244 255 271 276 260 240 230 230 234 234 216 209 190 147 123 122 105 95
148 141 153 134 133 149 151 171 188 197 209 196 187 191 184 200 207 216 242 265 268 309 316 315 311 318 328 324 338 348 337 335 336 321 313 308 314 326 327 326 318 307 315 337 336 332 326 325 328 328 328 329 331 328 322 319 314 311 306 301 298 296 300 302 295 272 247 228 231 232 244 260 264 266 248 230 223 223 224 231 207 209 176 141 129 139 130
153 159 163 148 160 169 193 198 208 211 222 190 195 190 186 207 221 244 251 285 288 293 314 314 315 308 308 312 330 331 319 318 317 319 311 313 324 331 328 324 316 315 319 313 314 326 329 333 332 334 335 334 334 331 329 325 318 315 314 313 310 301 306 332 303 287 249 217 217 223 229 238 248 255 259 233 218 220 220 216 199 184 144 134 154 155 135
152 164 175 183 189 200 214 221 217 220 204 190 196 203 199 201 218 232 258 282 308 309 305 304 310 312 310 307 312 323 308 307 277 298 322 322 322 312 300 293 286 286 287 288 290 319 331 331 333 337 339 339 337 343 338 331 326 324 326 325 322 321 347 331 323 348 268 221 216 220 225 235 243 244 240 225 206 210 211 201 198 183 166 134 131 120 116
160 168 186 196 197 211 227 217 224 213 200 192 200 214 206 214 230 245 268 289 296 301 295 300 296 295 345 62 338 305 309 283 262 231 350 326 319 313 300 307 299 292 291 291 303 312 324 331 336 337 338 338 354 352 343 334 328 329 334 335 332 334 332 344 347 317 220 210 220 219 226 236 252 248 230 203 201 201 198 183 184 174 164 164 146 131 146
189 209 228 189 204 206 222 221 216 214 195 193 196 206 213 213 229 254 271 285 292 286 279 280 330 92 84 2 328 308 302 300 313 4 355 327 320 318 305 314 308 306 300 300 310 323 333 330 337 329 331 341 359 354 348 342 338 341 343 340 342 342 351 354 346 345 341 292 234 215 229 256 252 259 207 198 193 187 175 166 167 168 157 130 106 108 105
182 132 128 153 183 222 256 228 200 209 192 188 202 200 206 226 248 270 12 304 280 245 199 168 113 124 146 211 226 226 245 301 303 295 311 325 321 305 313 326 319 320 319 310 344 334 335 331 350 335 326 331 359 359 3 355 349 349 350 355 355 352 356 7 10 4 8 37 133 144 201 251 249 265 206 183 153 115 110 108 123 128 122 126 112 113 115
172 160 162 164 188 207 204 223 211 188 185 183 156 145 239 238 247 253 221 235 251 224 164 157 149 146 170 211 211 183 211 234 262 283 290 301 300 306 326 314 319 322 324 309 357 340 326 343 352 329 308 329 1 5 11 352 350 1 2 4 11 9 10 14 26 35 28 49 96 118 127 144 227 249 154 152 141 118 111 110 103 115 127 122 120 120 123
194 188 180 180 172 197 198 195 190 188 188 178 175 188 206 217 228 237 282 274 238 221 187 172 183 197 206 200 188 156 209 225 284 312 308 308 301 310 308 302 301 325 311 321 353 332 329 343 337 313 302 351 4 6 10 352 345 6 18 15 20 20 21 23 25 32 39 45 70 107 140 146 132 125 125 120 97 88 101 107 104 98 97 109 116 125 130
191 197 185 187 179 188 193 189 184 185 186 186 196 204 215 224 228 272 287 293 254 220 211 207 209 194 178 159 174 183 204 201 236 255 275 279 286 301 281 320 355 347 343 348 326 316 334 335 317 310 354 5 359 8 20 355 324 335 25 20 24 25 27 31 35 35 36 42 44 56 85 103 113 108 97 91 91 91 92 98 104 111 117 115 115 119 128
182 187 192 186 188 186 184 177 185 193 195 203 205 204 203 218 258 278 272 265 248 224 229 236 232 229 209 226 240 169 184 205 222 273 293 294 287 285 310 359 360 340 325 314 307 304 337 336 320 318 350 359 357 358 11 1 323 357 24 26 27 32 30 36 36 47 50 51 48 52 60 65 78 85 88 89 87 85 72 67 99 109 112 115 120 120 105
191 192 191 185 194 191 189 188 196 205 209 218 222 220 202 210 229 256 281 264 194 209 250 241 245 246 239 238 247 210 161 170 178 211 269 268 274 267 244 192 30 14 1 313 306 332 333 305 311 346 353 357 360 354 346 340 307 12 27 33 32 35 33 32 34 37 41 44 52 53 64 68 73 78 85 88 91 89 98 99 100 102 102 94 79 71 74
197 189 186 191 193 200 202 200 206 215 219 220 222 228 227 236 252 267 272 275 201 202 247 250 246 252 261 272 283 266 155 171 201 238 253 262 254 257 289 64 36 4 7 341 331 315 312 324 352 345 2 344 12 2 339 333 332 31 34 39 38 42 39 35 35 37 40 41 43 47 57 69 74 76 81 83 84 89 89 88 86 83 79 74 78 75 71
199 194 195 198 199 201 207 213 217 222 222 220 224 230 230 232 246 264 291 293 259 236 250 247 277 303 305 295 265 242 203 200 197 221 239 269 304 313 305 55 23 19 4 310 281 275 336 354 2 10 1 339 343 1 328 310 10 29 40 41 46 47 47 45 45 45 46 47 46 47 50 59 68 73 73 74 76 78 81 77 73 68 68 75 83 87 89
202 203 205 207 206 205 210 212 216 224 231 225 221 222 225 229 240 253 266 251 241 239 237 251 160 197 240 240 238 235 228 206 216 219 228 213 233 325 330 358 336 50 349 315 320 328 4 11 5 18 352 336 327 324 302 319 29 35 42 48 52 50 51 50 55 56 52 50 52 52 52 56 60 65 64 66 66 57 55 57 61 65 73 79 86 96 104
212 215 215 212 210 207 211 214 217 219 228 230 225 224 224 224 234 249 257 248 227 223 252 240 226 226 227 228 236 243 216 202 211 209 229 197 181 174 235 328 344 64 40 323 335 360 20 14 23 352 330 324 322 320 325 27 17 46 49 46 55 54 50 55 54 57 61 60 55 54 55 58 63 66 69 71 72 72 71 75 79 86 93 99 102 101 101
220 221 222 219 211 203 208 212 215 220 224 229 225 219 221 227 232 236 248 245 238 222 213 235 239 234 227 223 229 243 280 277 260 241 239 238 223 144 129 190 221 317 32 310 309 16 34 18 357 332 320 317 322 312 336 32 33 41 48 49 47 66 66 57 59 58 61 64 69 68 66 66 67 70 73 73 77 81 84 87 91 98 102 106 109 113 114
227 226 227 227 224 219 220 219 214 215 218 222 228 221 224 232 234 233 233 243 239 220 215 209 220 226 230 227 224 222 229 241 221 248 293 325 359 60 74 21 36 42 319 292 359 6 59 59 337 327 325 327 317 295 38 26 42 49 53 62 64 57 64 72 70 68 60 57 58 65 74 74 72 69 69 72 76 81 84 89 95 95 98 99 103 104 109
235 231 223 223 226 228 223 218 211 214 218 222 232 235 224 224 229 234 231 231 240 233 219 210 207 209 211 223 227 216 212 201 187 193 211 169 126 122 111 133 138 303 279 309 32 31 22 14 352 331 322 323 306 357 37 46 51 56 57 62 62 67 64 67 69 75 76 76 77 74 62 67 76 86 88 89 85 83 84 86 90 94 95 96 99 94 97
234 238 239 234 232 219 204 196 199 213 218 225 233 242 234 226 227 233 235 228 225 230 225 219 213 200 196 200 216 239 262 269 228 172 181 195 168 161 190 182 109 100 124 155 135 99 72 345 335 320 324 307 297 55 42 51 50 60 62 60 56 62 65 71 70 74 79 81 76 71 75 77 74 69 69 70 73 71 73 77 81 83 87 91 92 93 97
228 242 244 241 237 217 207 207 210 215 224 227 231 239 235 228 227 231 233 229 229 227 227 221 217 205 198 196 204 214 211 231 288 1 135 175 171 176 123 107 142 207 236 238 103 110 73 355 330 331 306 293 8 55 59 60 55 54 52 54 61 59 61 64 71 77 81 78 78 78 80 78 77 78 79 79 79 78 75 71 69 70 79 82 83 81 80
217 216 223 224 219 214 213 210 215 226 232 233 237 236 219 211 224 225 227 231 233 231 233 222 212 204 203 189 193 198 195 194 200 223 179 174 181 161 155 172 140 32 336 8 118 111 126 211 248 290 304 1 50 45 60 61 69 63 71 72 74 76 75 80 80 83 87 87 86 90 88 85 83 83 81 80 80 80 78 80 82 82 74 73 81 83 86
229 226 230 224 224 215 211 227 240 243 244 235 231 217 202 216 232 235 233 230 229 224 232 230 225 212 202 196 192 191 182 185 186 181 214 185 188 162 182 148 147 170 172 200 182 192 168 186 124 184 284 35 66 74 76 85 91 87 78 81 81 86 91 84 73 68 62 72 86 90 91 91 89 90 88 89 88 88 87 88 88 86 87 92 97 103 106
260 256 250 247 247 239 231 220 225 234 240 237 225 203 206 218 226 230 232 208 227 231 228 232 229 216 211 202 196 190 183 182 174 174 192 195 195 186 164 193 183 161 195 208 170 178 200 91 104 327 320 310 92 99 101 80 91 88 87 87 84 78 77 85 93 91 97 102 95 93 91 90 99 101 98 97 96 94 94 92 90 90 91 90 94 98 105